Location: Bonningues
(50.7927°N, 2.0150°E)
Time: 23:33:01
(UTC+00:00)

Cosmos 405 Rocket - Pass Details

Date: 08 August 2020
Orbit: 490 x 553 km, 81.3° (Epoch: 23 September)

Event Time Altitude Azimuth Distance (km) Brightness Sun altitude
Exits shadow 20:48:58 18° 118° (ESE) 1,290 4.1 -11.7°
Maximum altitude 20:50:16 21° 90° (E) 1,163 4.1 -11.8°
Drops below altitude 10° 20:53:06 10° 40° (NE) 1,708 5.4 -12.2°
Sets 20:55:36 0° 24° (NNE) 2,606 6.6 -12.4°
